GASPACS (51439 NORAD) Tracking and Keplerian Element Data

This shows tracking and keplerian element data for the satellite.

Feedback or suggestion? Click here.




ElementValue
Catalog51439
NameGASPACS
Epoch Orbit1799
Epoch Day141.29161656
Epoch Year2022
RAAN97.6702
Inclination51.6226
Eccentricity0.0007036
Argument of Perigee144.5415
Mean Anonmoly215.6065
Mean Motion16.02634031
Decay Rate0.02005118
L11 51439U 98067TB 22141.29161656 .02005118 28543-2 34016-2 0 9995
L22 51439 51.6226 97.6702 0007036 144.5415 215.6065 16.02634031 17994



Live tracking and technical data element details for GASPACS (NORAD 51439). GASPACS can be tracked NOW for your location showing map with azimuth and elevation plus other details from your city location.







IsCatalogInMostPopularTable: catalog: 51439, numindb: 38
Update: records affected: 1



GetName: 51439 GASPACS

Hit Count: updated at: Mon, 28 Nov 2022 05:12:28 GMT